TimeCST,TemperatureF,Dew PointF,Humidity,Sea Level PressureIn,VisibilityMPH,Wind Direction,Wind SpeedMPH,Gust SpeedMPH,PrecipitationIn,Events,Conditions,WindDirDegrees,DateUTC
12:15 AM,28.4,14.0,55,30.06,10.0,West,9.2,-,N/A,,Clear,270,2011-11-17 06:15:00
12:35 AM,28.4,10.4,47,30.05,10.0,West,9.2,-,N/A,,Clear,270,2011-11-17 06:35:00
1:15 AM,28.4,10.4,47,30.06,10.0,West,9.2,-,N/A,,Clear,260,2011-11-17 07:15:00
1:35 AM,28.4,10.4,47,30.06,10.0,West,8.1,-,N/A,,Clear,270,2011-11-17 07:35:00
1:55 AM,26.6,3.2,37,30.07,10.0,West,8.1,18.4,N/A,,Clear,280,2011-11-17 07:55:00
2:15 AM,26.6,8.6,47,30.07,10.0,West,6.9,16.1,N/A,,Clear,270,2011-11-17 08:15:00
2:35 AM,26.6,12.2,55,30.07,10.0,WSW,9.2,-,N/A,,Clear,250,2011-11-17 08:35:00
2:55 AM,24.8,12.2,59,30.07,10.0,West,8.1,-,N/A,,Clear,260,2011-11-17 08:55:00
3:35 AM,24.8,12.2,59,30.07,10.0,West,6.9,-,N/A,,Clear,270,2011-11-17 09:35:00
3:55 AM,24.8,12.2,59,30.08,10.0,WSW,5.8,-,N/A,,Clear,250,2011-11-17 09:55:00
4:15 AM,23.0,12.2,63,30.08,10.0,West,5.8,-,N/A,,Clear,260,2011-11-17 10:15:00
4:35 AM,23.0,12.2,63,30.08,10.0,WSW,8.1,-,N/A,,Clear,250,2011-11-17 10:35:00
4:55 AM,23.0,12.2,63,30.09,10.0,West,6.9,-,N/A,,Clear,260,2011-11-17 10:55:00
5:15 AM,23.0,12.2,63,30.09,10.0,WSW,8.1,-,N/A,,Clear,250,2011-11-17 11:15:00
5:35 AM,23.0,12.2,63,30.09,10.0,WSW,9.2,-,N/A,,Clear,250,2011-11-17 11:35:00
6:15 AM,23.0,12.2,63,30.09,10.0,West,8.1,-,N/A,,Clear,260,2011-11-17 12:15:00
6:35 AM,23.0,12.2,63,30.10,10.0,West,6.9,-,N/A,,Clear,260,2011-11-17 12:35:00
6:55 AM,23.0,12.2,63,30.10,10.0,West,6.9,-,N/A,,Clear,260,2011-11-17 12:55:00
7:15 AM,23.0,12.2,63,30.11,10.0,WSW,9.2,-,N/A,,Clear,250,2011-11-17 13:15:00
7:35 AM,23.0,12.2,63,30.11,10.0,WSW,8.1,-,N/A,,Clear,250,2011-11-17 13:35:00
7:55 AM,23.0,12.2,63,30.12,10.0,WSW,9.2,-,N/A,,Clear,250,2011-11-17 13:55:00
8:15 AM,24.8,12.2,59,30.12,10.0,West,9.2,-,N/A,,Clear,260,2011-11-17 14:15:00
8:35 AM,26.6,12.2,55,30.12,10.0,West,10.4,16.1,N/A,,Clear,260,2011-11-17 14:35:00
8:55 AM,26.6,12.2,55,30.13,10.0,West,9.2,17.3,N/A,,Clear,260,2011-11-17 14:55:00
9:15 AM,26.6,12.2,55,30.13,10.0,West,11.5,-,N/A,,Clear,270,2011-11-17 15:15:00
9:35 AM,26.6,12.2,55,30.13,10.0,West,11.5,16.1,N/A,,Clear,270,2011-11-17 15:35:00
9:55 AM,26.6,12.2,55,30.13,10.0,West,9.2,17.3,N/A,,Scattered Clouds,280,2011-11-17 15:55:00
10:15 AM,26.6,12.2,55,30.14,10.0,West,8.1,16.1,N/A,,Mostly Cloudy,270,2011-11-17 16:15:00
10:35 AM,26.6,12.2,55,30.14,10.0,WNW,9.2,18.4,N/A,,Mostly Cloudy,290,2011-11-17 16:35:00
10:55 AM,28.4,12.2,51,30.13,10.0,West,11.5,19.6,N/A,,Scattered Clouds,260,2011-11-17 16:55:00
11:15 AM,28.4,12.2,51,30.12,10.0,WSW,12.7,-,N/A,,Clear,250,2011-11-17 17:15:00
11:35 AM,28.4,12.2,51,30.12,10.0,WSW,13.8,21.9,N/A,,Clear,250,2011-11-17 17:35:00
11:55 AM,28.4,10.4,47,30.12,10.0,West,13.8,20.7,N/A,,Scattered Clouds,260,2011-11-17 17:55:00
12:15 PM,30.2,12.2,47,30.12,10.0,West,15.0,23.0,N/A,,Scattered Clouds,260,2011-11-17 18:15:00
12:35 PM,30.2,12.2,47,30.12,10.0,WSW,12.7,19.6,N/A,,Scattered Clouds,250,2011-11-17 18:35:00
12:55 PM,30.2,10.4,44,30.12,10.0,WSW,11.5,21.9,N/A,,Clear,250,2011-11-17 18:55:00
1:15 PM,30.2,12.2,47,30.12,10.0,WSW,16.1,-,N/A,,Clear,250,2011-11-17 19:15:00
1:35 PM,30.2,10.4,44,30.12,10.0,West,13.8,21.9,N/A,,Clear,260,2011-11-17 19:35:00
1:55 PM,32.0,12.2,44,30.11,10.0,West,10.4,13.8,N/A,,Clear,280,2011-11-17 19:55:00
2:15 PM,32.0,10.4,41,30.12,10.0,West,10.4,17.3,N/A,,Clear,260,2011-11-17 20:15:00
2:35 PM,32.0,10.4,41,30.12,10.0,West,11.5,16.1,N/A,,Clear,270,2011-11-17 20:35:00
2:55 PM,32.0,10.4,41,30.13,10.0,WSW,17.3,21.9,N/A,,Clear,250,2011-11-17 20:55:00
3:15 PM,32.0,8.6,38,30.13,10.0,West,12.7,-,N/A,,Clear,260,2011-11-17 21:15:00
3:35 PM,30.2,8.6,40,30.13,10.0,WSW,10.4,-,N/A,,Clear,250,2011-11-17 21:35:00
3:55 PM,30.2,8.6,40,30.13,10.0,WSW,10.4,-,N/A,,Clear,250,2011-11-17 21:55:00
4:15 PM,30.2,8.6,40,30.13,10.0,WSW,8.1,-,N/A,,Clear,250,2011-11-17 22:15:00
4:35 PM,26.6,8.6,47,30.13,10.0,WSW,8.1,-,N/A,,Clear,240,2011-11-17 22:35:00
4:55 PM,28.4,8.6,43,30.14,10.0,WSW,6.9,-,N/A,,Clear,250,2011-11-17 22:55:00
5:15 PM,26.6,8.6,47,30.14,10.0,WSW,6.9,-,N/A,,Clear,250,2011-11-17 23:15:00
5:35 PM,24.8,8.6,50,30.15,10.0,SW,5.8,-,N/A,,Clear,230,2011-11-17 23:35:00
5:55 PM,24.8,8.6,50,30.15,10.0,SW,4.6,-,N/A,,Clear,220,2011-11-17 23:55:00
6:15 PM,24.8,10.4,54,30.15,10.0,SW,5.8,-,N/A,,Clear,230,2011-11-18 00:15:00
6:35 PM,23.0,12.2,63,30.16,10.0,SSW,5.8,-,N/A,,Clear,200,2011-11-18 00:35:00
6:55 PM,24.8,12.2,59,30.15,10.0,SSW,5.8,-,N/A,,Clear,200,2011-11-18 00:55:00
7:15 PM,24.8,10.4,54,30.16,10.0,SSW,5.8,-,N/A,,Clear,200,2011-11-18 01:15:00
7:35 PM,23.0,12.2,63,30.15,10.0,SSW,5.8,-,N/A,,Clear,200,2011-11-18 01:35:00
7:55 PM,23.0,12.2,63,30.16,10.0,SSW,8.1,-,N/A,,Clear,200,2011-11-18 01:55:00
8:15 PM,23.0,12.2,63,30.15,10.0,South,4.6,-,N/A,,Clear,190,2011-11-18 02:15:00
8:35 PM,23.0,10.4,59,30.15,10.0,South,5.8,-,N/A,,Clear,190,2011-11-18 02:35:00
8:55 PM,23.0,12.2,63,30.15,10.0,South,5.8,-,N/A,,Clear,180,2011-11-18 02:55:00
9:15 PM,24.8,10.4,54,30.16,10.0,South,5.8,-,N/A,,Clear,180,2011-11-18 03:15:00
9:35 PM,24.8,10.4,54,30.15,10.0,SSE,5.8,-,N/A,,Clear,160,2011-11-18 03:35:00
9:55 PM,23.0,12.2,63,30.15,10.0,SE,3.5,-,N/A,,Clear,130,2011-11-18 03:55:00
10:35 PM,23.0,12.2,63,30.14,10.0,ESE,5.8,-,N/A,,Clear,120,2011-11-18 04:35:00
10:55 PM,23.0,12.2,63,30.14,10.0,SE,6.9,-,N/A,,Clear,130,2011-11-18 04:55:00
11:15 PM,23.0,12.2,63,30.13,10.0,SE,5.8,-,N/A,,Clear,130,2011-11-18 05:15:00
11:35 PM,23.0,14.0,68,30.12,10.0,SE,5.8,-,N/A,,Clear,130,2011-11-18 05:35:00
11:55 PM,23.0,14.0,68,30.12,10.0,SE,5.8,-,N/A,,Clear,140,2011-11-18 05:55:00